User: anonymous   Login
Location: Caltech
(34.1382°N, 118.1253°W)
Time: 02:28:28
(UTC-07:00)
Language:

BREEZE M DEB (TANK) - Orbit

View from above orbital plane
View from above orbital plane
View from above satellite
View from above satellite

Ground track
Ground track

The orbit data is extracted from the following two-line orbital elements,

1 33437U 08057B   18168.29253757 +.00000132 +00000-0 +52947-4 0  9991
2 33437 049.5720 293.4625 4978663 341.3022 005.4890 05.60869274194320
Epoch (UTC): 17 June 2018 07:01:15
Eccentricity: 0.4978663
inclination: 49.5720°
perigee height: 341 km
apogee height: 13665 km
right ascension of ascending node: 293.4625°
argument of perigee: 341.3022°
revolutions per day: 5.60869274
mean anomaly at epoch: 5.4890°
orbit number at epoch: 19432

The dashed part of the orbit path shows where the satellite is in the earth's shadow,  

DLR